Stations météo

réclame
Mon MeteoGroup
Langres, France (7283): Température de l'air & dewpoint: 17.09.2017 22:00:00 - 23.09.2017 22:00:00 (CEST)Langres, France (7283): Température de l'air 5cm: 17.09.2017 22:00:00 - 23.09.2017 22:00:00 (CEST)Langres, France (7283): Vitesse du vent & gusts: 17.09.2017 22:00:00 - 23.09.2017 22:00:00 (CEST)Langres, France (7283): Direction du vent: 17.09.2017 22:00:00 - 23.09.2017 22:00:00 (CEST)Langres, France (7283): reduced air pressure: 17.09.2017 22:00:00 - 23.09.2017 22:00:00 (CEST)Langres, France (7283): visibility: 17.09.2017 22:00:00 - 23.09.2017 22:00:00 (CEST)Langres, France (7283): Ensoleillement: 17.09.2017 22:00:00 - 23.09.2017 22:00:00 (CEST)Langres, France (7283): Quantités de précipitations: 17.09.2017 22:00:00 - 23.09.2017 22:00:00 (CEST)
Date & Time tt [°C] td [°C] tt 5cm [°C] ff [km/h] ff [knt] fx [km/h] fx [knt] dd ppp [hPa] vv [km] sd [min] rr [mm]
23.09.2017 22:00:00 - - - - - - - - - - - -
23.09.2017 21:00:00 15,1 10,1 12,1 5 3 10 5 N 1020,5 20 0 0,0
23.09.2017 20:00:00 15,6 9,5 12,6 5 3 11 6 N 1020,4 20 5 0,0
23.09.2017 19:00:00 16,6 9,0 14,2 4 2 10 6 N 1020,2 20 0 0,0
23.09.2017 18:00:00 17,8 8,9 18,1 5 3 12 7 N 1019,8 20 0 0,0
23.09.2017 17:00:00 18,8 8,4 21,5 3 2 15 8 NNE 1019,8 20 0 0,0
23.09.2017 16:00:00 20,3 8,0 22,5 4 2 12 6 SW 1019,8 20 36 0,0
23.09.2017 15:00:00 18,6 7,7 22,2 3 2 12 6 NNE 1020,7 20 33 0,0
23.09.2017 14:00:00 19,5 7,6 25,0 3 2 14 7 ESE 1020,6 20 60 0,0
23.09.2017 13:00:00 19,1 10,1 25,3 5 3 14 8 E 1021,0 20 60 0,0
23.09.2017 12:00:00 18,0 10,6 23,3 6 4 16 9 NE 1021,5 20 60 0,0
23.09.2017 11:00:00 16,0 10,7 22,3 5 3 13 7 NE 1022,2 19 60 0,0
23.09.2017 10:00:00 14,9 10,3 10,8 4 2 12 6 NNE 1022,3 19 60 0,0
23.09.2017 09:00:00 13,4 9,8 8,7 7 4 14 7 NNE 1022,5 20 60 0,0
23.09.2017 08:00:00 11,3 9,6 5,9 5 3 10 6 NNE 1022,9 20 6 0,0
23.09.2017 07:00:00 11,1 9,2 6,2 4 2 11 6 NNE 1022,8 20 0 0,0
23.09.2017 06:00:00 11,8 9,4 7,0 6 3 12 7 NNE 1022,8 20 0 0,0
23.09.2017 05:00:00 11,6 9,2 6,0 4 2 10 6 N 1023,0 20 0 0,0
23.09.2017 04:00:00 12,0 9,2 7,0 4 2 11 6 NNE 1023,2 20 0 0,0
23.09.2017 03:00:00 12,6 9,2 9,0 5 3 13 7 N 1023,2 20 0 0,0
23.09.2017 02:00:00 12,6 9,4 7,3 5 3 12 6 N 1023,5 20 0 0,0
23.09.2017 01:00:00 13,1 9,3 8,9 6 3 11 6 N 1023,2 20 0 0,0
23.09.2017 00:00:00 13,4 9,4 6,2 3 2 8 5 NNW 1023,2 20 0 0,0
22.09.2017 23:00:00 13,0 9,1 5,6 4 2 9 5 NNW 1023,3 20 0 0,0
22.09.2017 22:00:00 13,7 8,9 7,2 4 2 12 6 NNW 1022,8 20 0 0,0
22.09.2017 21:00:00 14,7 9,1 7,9 6 4 11 6 N 1022,3 20 0 0,0
22.09.2017 20:00:00 16,1 8,6 7,9 5 3 8 4 NNW 1021,3 20 13 0,0
22.09.2017 19:00:00 18,7 7,8 15,2 4 2 13 7 NNW 1020,5 20 60 0,0
22.09.2017 18:00:00 20,2 8,5 24,7 6 4 14 7 WNW 1020,0 20 60 0,0
22.09.2017 17:00:00 20,3 8,6 20,4 9 5 17 9 WNW 1019,8 20 42 0,0
22.09.2017 16:00:00 20,4 8,7 26,1 7 4 15 8 WNW 1019,9 20 60 0,0
22.09.2017 15:00:00 20,7 8,3 28,4 6 3 19 10 W 1019,8 20 60 0,0
22.09.2017 14:00:00 19,6 8,3 26,9 5 3 13 7 WNW 1020,1 20 60 0,0
22.09.2017 13:00:00 18,8 8,7 27,6 4 2 11 6 WNW 1020,2 20 60 0,0
22.09.2017 12:00:00 17,9 8,7 26,9 3 2 11 6 WNW 1020,3 20 60 0,0
22.09.2017 11:00:00 16,1 8,8 22,8 5 3 10 6 WNW 1020,6 20 60 0,0
22.09.2017 10:00:00 14,6 8,5 10,2 3 2 8 5 W 1020,6 20 56 0,0
22.09.2017 09:00:00 12,4 7,5 4,4 5 3 8 5 WSW 1020,5 20 52 0,0
22.09.2017 08:00:00 8,5 6,6 1,7 2 1 10 6 SSW 1021,0 20 4 0,0
22.09.2017 07:00:00 8,3 5,6 1,7 4 2 7 4 SW 1020,6 20 0 0,0
22.09.2017 06:00:00 8,3 5,9 2,1 2 1 5 3 SSW 1020,6 20 0 0,0
22.09.2017 05:00:00 8,2 6,3 2,1 2 1 5 3 S 1020,5 20 0 0,0
22.09.2017 04:00:00 8,8 6,2 2,2 0 0 4 2 N 1020,4 20 0 0,0
22.09.2017 03:00:00 8,9 6,3 2,3 0 0 5 3 N 1020,5 20 0 0,0
22.09.2017 02:00:00 10,1 6,6 2,8 4 2 7 4 SW 1020,4 20 0 0,0
22.09.2017 01:00:00 10,6 7,3 3,7 4 2 6 4 SW 1020,0 20 0 0,0
22.09.2017 00:00:00 11,1 7,4 3,3 3 2 6 4 SSW 1019,9 20 0 0,0
21.09.2017 23:00:00 10,5 7,2 3,2 4 2 6 3 SSW 1019,9 20 0 0,0
21.09.2017 22:00:00 10,5 6,4 3,4 2 1 6 4 S 1020,0 20 0 0,0
21.09.2017 21:00:00 11,6 6,3 4,1 4 2 6 4 SSE 1019,5 20 0 0,0
21.09.2017 20:00:00 13,8 6,4 5,9 3 2 9 5 SE 1018,8 20 2 0,0
21.09.2017 19:00:00 17,0 6,8 15,4 5 3 11 6 ESE 1017,8 20 60 0,0
21.09.2017 18:00:00 18,3 6,5 21,3 6 3 13 7 ESE 1017,5 20 60 0,0
21.09.2017 17:00:00 18,9 6,7 24,9 6 4 17 9 ESE 1017,4 20 60 0,0
21.09.2017 16:00:00 19,0 8,0 25,5 6 4 18 10 ESE 1017,6 20 60 0,0
21.09.2017 15:00:00 18,3 8,3 24,5 8 4 20 11 E 1017,9 17 60 0,0
21.09.2017 14:00:00 17,3 7,9 23,9 11 6 23 12 ESE 1018,4 18 60 0,0
21.09.2017 13:00:00 16,2 9,1 21,8 10 5 25 13 E 1019,1 20 60 0,0
21.09.2017 12:00:00 14,2 7,9 20,0 15 8 26 14 E 1019,8 20 60 0,0
21.09.2017 11:00:00 12,9 7,8 18,2 13 7 23 12 ESE 1020,4 18 60 0,0
21.09.2017 10:00:00 12,1 8,0 8,1 11 6 21 11 E 1020,6 20 60 0,0
21.09.2017 09:00:00 10,1 7,0 6,4 9 5 17 9 E 1020,9 20 60 0,0
21.09.2017 08:00:00 7,6 6,5 5,3 8 4 13 7 E 1021,2 20 19 0,0
21.09.2017 07:00:00 7,4 6,5 5,4 7 4 12 7 ESE 1021,3 11 0 0,0
21.09.2017 06:00:00 7,6 6,7 5,3 5 3 10 5 E 1021,5 7 0 0,0
21.09.2017 05:00:00 7,7 6,6 5,5 5 3 10 6 E 1021,7 7 0 0,0
21.09.2017 04:00:00 7,9 7,0 2,6 6 3 11 6 ESE 1022,0 12 0 0,0
21.09.2017 03:00:00 8,1 6,9 2,4 5 3 9 5 E 1022,2 20 0 0,0
21.09.2017 02:00:00 8,2 6,5 2,6 4 2 9 5 E 1022,4 20 0 0,0
21.09.2017 01:00:00 8,9 7,3 4,6 6 4 10 5 ESE 1022,4 20 0 0,0
21.09.2017 00:00:00 8,7 7,9 1,4 5 3 9 5 ESE 1022,5 20 0 0,0
20.09.2017 23:00:00 7,9 7,1 1,5 3 2 4 2 E 1022,7 20 0 0,0
20.09.2017 22:00:00 8,2 7,1 2,0 3 1 5 3 E 1022,7 20 0 0,0
20.09.2017 21:00:00 8,9 7,2 2,7 0 0 5 3 N 1022,8 20 0 0,0
20.09.2017 20:00:00 10,7 6,3 4,3 4 2 6 3 NNW 1022,4 20 17 0,0
20.09.2017 19:00:00 13,9 6,5 12,2 3 2 10 5 NW 1021,6 20 41 0,0
20.09.2017 18:00:00 15,4 6,9 17,3 0 0 10 6 N 1021,4 20 31 0,0
20.09.2017 17:00:00 15,4 7,2 16,2 4 2 9 5 ESE 1021,6 20 22 0,0
20.09.2017 16:00:00 13,9 7,0 16,2 3 2 14 7 ENE 1022,1 20 13 0,0
20.09.2017 15:00:00 15,0 6,8 16,8 3 2 9 5 WSW 1022,2 20 22 0,0
20.09.2017 14:00:00 13,6 7,8 15,7 4 2 12 7 E 1023,0 20 11 0,0
20.09.2017 13:00:00 13,7 8,9 16,8 3 1 15 8 NNE 1023,2 20 43 0,0
20.09.2017 12:00:00 10,4 9,5 12,6 5 3 12 7 WNW 1024,3 20 8 0,0
20.09.2017 11:00:00 9,2 8,9 11,4 4 2 11 6 WNW 1024,5 6 0 0,0
20.09.2017 10:00:00 8,7 8,4 8,8 3 2 11 6 WNW 1024,2 0,2 0 0,0
20.09.2017 09:00:00 7,6 7,2 7,8 5 3 11 6 NW 1024,3 0,1 0 0,0
20.09.2017 08:00:00 7,6 7,2 7,1 5 3 11 6 W 1023,9 0,1 0 0,0
20.09.2017 07:00:00 8,0 7,6 2,5 10 5 17 9 W 1023,6 0,3 0 0,0
20.09.2017 06:00:00 7,7 7,1 2,9 4 2 13 7 WNW 1023,7 7 0 0,0
20.09.2017 05:00:00 8,3 7,5 3,1 4 2 14 8 WNW 1023,5 10 0 0,0
20.09.2017 04:00:00 8,8 7,7 5,5 4 2 16 9 W 1023,3 11 0 0,0
20.09.2017 03:00:00 9,2 8,1 8,6 9 5 20 11 WNW 1023,3 18 0 0,0
20.09.2017 02:00:00 9,1 8,0 7,2 10 6 19 10 WNW 1023,3 20 0 0,0
20.09.2017 01:00:00 9,3 7,9 8,5 9 5 19 11 WNW 1023,2 20 0 0,0
20.09.2017 00:00:00 9,7 8,1 8,7 13 7 23 12 W 1023,3 20 0 0,0
19.09.2017 23:00:00 9,7 8,0 8,8 11 6 19 10 W 1023,5 20 0 0,0
19.09.2017 22:00:00 10,1 8,0 9,3 11 6 19 10 W 1023,0 20 0 0,0
19.09.2017 21:00:00 10,0 7,8 8,1 10 5 18 10 W 1022,7 20 0 0,0
19.09.2017 20:00:00 10,0 7,8 8,2 9 5 20 11 WNW 1022,2 20 0 0,0
19.09.2017 19:00:00 11,0 8,0 11,0 8 4 24 13 WNW 1021,4 20 0 0,0
19.09.2017 18:00:00 11,7 7,4 12,6 10 5 24 13 WNW 1020,8 20 2 0,0
19.09.2017 17:00:00 13,0 7,2 14,2 12 6 27 15 WNW 1020,0 20 33 0,0
19.09.2017 16:00:00 12,9 8,4 15,4 12 7 29 16 WNW 1020,0 20 38 0,0
19.09.2017 15:00:00 12,2 8,7 14,3 14 8 32 18 W 1019,9 20 15 0,0
19.09.2017 14:00:00 11,4 7,7 14,1 13 7 31 17 WNW 1020,1 20 16 0,0
19.09.2017 13:00:00 11,9 7,6 16,8 12 6 23 12 WNW 1019,7 20 20 0,0
19.09.2017 12:00:00 11,0 8,0 12,8 10 5 22 12 WNW 1019,6 20 14 0,0
19.09.2017 11:00:00 9,9 7,8 11,2 13 7 24 13 WNW 1020,1 20 0 0,0
19.09.2017 10:00:00 9,2 8,7 9,8 9 5 14 7 W 1019,8 10 0 0,0
19.09.2017 09:00:00 8,6 8,3 8,4 7 4 14 8 W 1019,5 1,6 0 0,0
19.09.2017 08:00:00 8,1 7,7 8,1 7 4 16 9 W 1019,4 1,2 0 0,0
19.09.2017 07:00:00 8,0 7,6 8,0 8 5 15 8 W 1019,2 1,8 0 0,0
19.09.2017 06:00:00 8,0 7,6 7,9 5 3 16 9 W 1018,7 0,7 0 0,0
19.09.2017 05:00:00 8,0 7,4 7,1 10 5 25 13 W 1019,0 3,9 0 0,0
19.09.2017 04:00:00 7,5 6,9 5,8 10 5 18 10 W 1019,3 20 0 0,0
19.09.2017 03:00:00 7,1 6,5 4,2 7 4 14 8 WSW 1019,6 20 0 0,0
19.09.2017 02:00:00 6,6 5,9 2,6 7 4 13 7 WSW 1019,9 20 0 0,0
19.09.2017 01:00:00 6,7 5,6 3,8 7 4 14 7 WSW 1019,8 20 0 0,0
19.09.2017 00:00:00 7,2 6,1 2,6 5 3 9 5 SW 1019,8 20 0 0,0
18.09.2017 23:00:00 8,0 6,8 3,6 5 3 22 12 WSW 1019,6 20 0 0,0
18.09.2017 22:00:00 7,8 6,7 2,3 5 3 8 5 SW 1019,5 20 0 0,0
18.09.2017 21:00:00 8,3 6,8 3,3 4 2 7 4 SW 1019,2 20 0 0,0
18.09.2017 20:00:00 9,5 6,6 4,2 5 3 13 7 WSW 1018,5 20 4 0,0
18.09.2017 19:00:00 12,4 6,7 12,2 9 5 23 12 WSW 1017,4 20 25 0,0
18.09.2017 18:00:00 12,8 8,5 14,3 9 5 16 9 SSW 1017,3 20 3 0,0
18.09.2017 17:00:00 13,3 9,0 15,5 4 2 13 7 S 1017,1 20 0 0,0
18.09.2017 16:00:00 12,8 7,7 14,7 6 4 11 6 SW 1017,3 20 0 0,0
18.09.2017 15:00:00 11,6 7,7 13,0 5 3 14 8 WSW 1017,8 20 0 0,0
18.09.2017 14:00:00 11,9 8,2 14,6 4 2 13 7 SSW 1017,9 20 0 0,0
18.09.2017 13:00:00 11,5 7,8 15,5 8 4 14 8 WSW 1017,8 20 0 0,0
18.09.2017 12:00:00 11,3 8,2 13,4 7 4 14 7 WSW 1017,9 20 0 0,0
18.09.2017 11:00:00 9,9 8,2 11,6 8 4 13 7 SW 1018,1 20 0 0,0
18.09.2017 10:00:00 8,9 8,3 10,3 6 4 11 6 SW 1018,2 20 0 0,0
18.09.2017 09:00:00 8,6 8,2 8,6 4 2 8 5 SW 1017,9 19 0 0,0
18.09.2017 08:00:00 8,2 7,8 8,0 4 2 8 4 SW 1017,5 20 0 0,0
18.09.2017 07:00:00 8,0 7,6 7,9 5 3 10 5 SW 1017,2 14 0 0,0
18.09.2017 06:00:00 7,8 7,4 7,7 5 3 8 5 SW 1017,1 14 0 0,0
18.09.2017 05:00:00 7,8 7,4 7,5 5 3 11 6 SW 1017,0 11 0 0,0
18.09.2017 04:00:00 7,7 7,3 7,4 4 2 8 4 SW 1017,0 20 0 0,2
18.09.2017 03:00:00 7,6 7,2 7,3 4 2 9 5 WSW 1016,9 20 0 0,0
18.09.2017 02:00:00 7,5 7,1 5,2 6 3 11 6 SW 1017,1 18 0 0,0
18.09.2017 01:00:00 7,2 6,6 5,1 4 2 10 6 SW 1016,9 20 0 0,0
18.09.2017 00:00:00 7,7 7,3 7,4 5 3 11 6 WSW 1016,8 20 0 0,0
17.09.2017 23:00:00 7,7 7,1 7,4 6 3 10 5 SW 1016,4 14 0 0,4
17.09.2017 22:00:00 7,8 7,2 7,4 5 3 9 5 WSW 1015,9 19 0 1,4

tt = Température de l'air
td = dewpoint
tt 5cm = Température de l'air 5cm
ff = Vitesse du vent
fx = gusts
dd = Direction du vent
ppp = reduced air pressure
vv = visibility
sd = Ensoleillement
rr = Quantités de précipitations

stations d'obs. à proximité